SND1 ZUDC-VQPR

Flight info

Callsign SND1
Flight time 1h 49m
Altitude 38100
Route MYD Y3 ENPAT Y3 LZP/N0467F380 DCT TASHI TASHI1
Aircraft A319/M-SDE3FGHIRWY/LB1

Departure

Time 2026-05-07 04:18
Airport Daocheng Yading Airport (ZUDC)

Arrival

Time 2026-05-07 06:07
Airport Paro International Airport (VQPR)
Time Latitude Longitude Altitude Speed Heading
2026-05-07 03:56 29.31151 100.06531 14483 ft 0 kts 73°
2026-05-07 04:09 29.31144 100.06508 14477 ft 4 kts 70°
2026-05-07 04:09 29.31133 100.06479 14477 ft 4 kts 58°
2026-05-07 04:10 29.31116 100.06458 14477 ft 4 kts
2026-05-07 04:10 29.31105 100.06458 14477 ft 1 kts 343°
2026-05-07 04:10 29.31104 100.06459 14476 ft 0 kts 343°
2026-05-07 04:12 29.31121 100.06453 14473 ft 5 kts 343°
2026-05-07 04:12 29.31164 100.06438 14477 ft 8 kts 343°
2026-05-07 04:13 29.31227 100.06417 14477 ft 9 kts 343°
2026-05-07 04:13 29.31243 100.06350 14477 ft 12 kts 253°
2026-05-07 04:13 29.31217 100.06247 14476 ft 15 kts 253°
2026-05-07 04:13 29.31137 100.06215 14477 ft 16 kts 164°
2026-05-07 04:14 29.31014 100.06256 14478 ft 20 kts 163°
2026-05-07 04:14 29.30870 100.06305 14478 ft 22 kts 164°
2026-05-07 04:14 29.30730 100.06352 14478 ft 20 kts 163°
2026-05-07 04:14 29.30597 100.06397 14478 ft 19 kts 163°
2026-05-07 04:15 29.30471 100.06439 14478 ft 18 kts 163°
2026-05-07 04:15 29.30350 100.06479 14478 ft 17 kts 163°
2026-05-07 04:15 29.30236 100.06518 14478 ft 17 kts 163°
2026-05-07 04:15 29.30120 100.06558 14479 ft 18 kts 163°
2026-05-07 04:16 29.29993 100.06601 14479 ft 19 kts 163°
2026-05-07 04:16 29.29915 100.06664 14479 ft 12 kts 130°
2026-05-07 04:16 29.29889 100.06638 14479 ft 7 kts 319°
2026-05-07 04:16 29.29902 100.06634 14479 ft 0 kts 345°
2026-05-07 04:17 29.29908 100.06632 14479 ft 4 kts 345°
2026-05-07 04:17 29.30121 100.06560 14479 ft 66 kts 343°
2026-05-07 04:17 29.30773 100.06337 14479 ft 127 kts 344°
2026-05-07 04:17 29.31794 100.05997 14476 ft 177 kts 343°
2026-05-07 04:18 29.33097 100.05555 14584 ft 203 kts 341°
2026-05-07 04:18 29.34461 100.05111 14949 ft 206 kts 339°
2026-05-07 04:18 29.35863 100.04663 15361 ft 215 kts 339°
2026-05-07 04:18 29.37339 100.04191 15657 ft 225 kts 339°
2026-05-07 04:19 29.38879 100.03701 15918 ft 237 kts 340°
2026-05-07 04:19 29.40542 100.03192 16072 ft 256 kts 342°
2026-05-07 04:19 29.42377 100.03158 16171 ft 283 kts 10°
2026-05-07 04:19 29.44179 100.04187 16588 ft 297 kts 40°
2026-05-07 04:20 29.45440 100.06064 17154 ft 302 kts 66°
2026-05-07 04:20 29.45899 100.08404 17711 ft 302 kts 94°
2026-05-07 04:20 29.45451 100.10726 18293 ft 298 kts 121°
2026-05-07 04:21 29.42427 100.13580 19285 ft 283 kts 174°
2026-05-07 04:21 29.40501 100.13567 19777 ft 275 kts 200°
2026-05-07 04:21 29.38842 100.12561 20264 ft 270 kts 226°
2026-05-07 04:21 29.37787 100.10809 20770 ft 270 kts 248°
2026-05-07 04:22 29.37071 100.08733 20906 ft 289 kts 249°
2026-05-07 04:22 29.36384 100.06487 21034 ft 308 kts 255°
2026-05-07 04:22 29.35963 100.04008 21157 ft 326 kts 263°
2026-05-07 04:22 29.35888 100.01347 21281 ft 343 kts 272°
2026-05-07 04:23 29.36080 99.98552 21406 ft 359 kts 273°
2026-05-07 04:23 29.36281 99.95639 21532 ft 374 kts 273°
2026-05-07 04:23 29.36482 99.92659 21790 ft 384 kts 273°
2026-05-07 04:23 29.36687 99.89588 22250 ft 388 kts 273°
2026-05-07 04:24 29.36895 99.86491 22773 ft 390 kts 272°
2026-05-07 04:24 29.37103 99.83378 23286 ft 392 kts 272°
2026-05-07 04:24 29.37310 99.80250 23705 ft 395 kts 272°
2026-05-07 04:24 29.37516 99.77105 24096 ft 396 kts 272°
2026-05-07 04:25 29.37722 99.73943 24501 ft 399 kts 272°
2026-05-07 04:25 29.37932 99.70765 24912 ft 400 kts 272°
2026-05-07 04:25 29.38143 99.67574 25306 ft 401 kts 272°
2026-05-07 04:25 29.38354 99.64378 25700 ft 403 kts 272°
2026-05-07 04:26 29.38564 99.61168 26061 ft 404 kts 272°
2026-05-07 04:26 29.38773 99.57951 26450 ft 406 kts 272°
2026-05-07 04:26 29.38980 99.54718 26840 ft 407 kts 272°
2026-05-07 04:26 29.39187 99.51474 27243 ft 409 kts 272°
2026-05-07 04:27 29.39395 99.48258 27590 ft 410 kts 272°
2026-05-07 04:27 29.39607 99.44988 27935 ft 411 kts 272°
2026-05-07 04:27 29.39817 99.41707 28284 ft 413 kts 272°
2026-05-07 04:27 29.40027 99.38415 28661 ft 415 kts 272°
2026-05-07 04:28 29.40237 99.35113 28988 ft 416 kts 272°
2026-05-07 04:28 29.40447 99.31797 29289 ft 417 kts 272°
2026-05-07 04:28 29.40659 99.28478 29628 ft 418 kts 272°
2026-05-07 04:28 29.40871 99.25149 29933 ft 420 kts 272°
2026-05-07 04:29 29.41082 99.21793 30239 ft 421 kts 272°
2026-05-07 04:29 29.41287 99.18489 30518 ft 421 kts 272°
2026-05-07 04:29 29.41496 99.15087 30759 ft 423 kts 272°
2026-05-07 04:29 29.41698 99.11770 31120 ft 422 kts 272°
2026-05-07 04:30 29.41904 99.08427 31604 ft 419 kts 272°
2026-05-07 04:30 29.42109 99.05107 32080 ft 416 kts 272°
2026-05-07 04:30 29.42309 99.01803 32577 ft 414 kts 271°
2026-05-07 04:30 29.42506 98.98534 33055 ft 410 kts 272°
2026-05-07 04:31 29.42704 98.95277 33540 ft 408 kts 272°
2026-05-07 04:31 29.42837 98.93087 33794 ft 407 kts 272°
2026-05-07 04:31 29.43029 98.89894 34187 ft 405 kts 271°
2026-05-07 04:31 29.43282 98.85593 34664 ft 403 kts 272°
2026-05-07 04:32 29.43472 98.82384 34973 ft 402 kts 271°
2026-05-07 04:32 29.43662 98.79191 35275 ft 402 kts 271°
2026-05-07 04:32 29.43787 98.77073 35475 ft 401 kts 271°
2026-05-07 04:32 29.43973 98.73881 35728 ft 400 kts 271°
2026-05-07 04:33 29.44158 98.70695 36016 ft 400 kts 271°
2026-05-07 04:33 29.44344 98.67512 36295 ft 399 kts 272°
2026-05-07 04:33 29.44529 98.64334 36576 ft 399 kts 271°
2026-05-07 04:33 29.44712 98.61169 36843 ft 398 kts 271°
2026-05-07 04:34 29.44897 98.57998 37065 ft 398 kts 272°
2026-05-07 04:34 29.45082 98.54827 37311 ft 397 kts 271°
2026-05-07 04:34 29.45262 98.51669 37575 ft 397 kts 271°
2026-05-07 04:34 29.45443 98.48506 37815 ft 396 kts 271°
2026-05-07 04:35 29.45625 98.45349 38010 ft 397 kts 271°
2026-05-07 04:35 29.45802 98.42188 38065 ft 396 kts 271°
2026-05-07 04:35 29.46150 98.35926 38065 ft 396 kts 271°
2026-05-07 04:36 29.46500 98.29623 38067 ft 396 kts 271°
2026-05-07 04:36 29.46844 98.23301 38066 ft 397 kts 271°
2026-05-07 04:37 29.47187 98.16987 38075 ft 396 kts 271°
2026-05-07 04:37 29.47528 98.10682 38076 ft 396 kts 271°
2026-05-07 04:38 29.47869 98.04370 38091 ft 396 kts 271°
2026-05-07 04:38 29.48206 97.98055 38100 ft 396 kts 271°
2026-05-07 04:39 29.48538 97.91733 38108 ft 396 kts 271°
2026-05-07 04:39 29.48869 97.85410 38114 ft 397 kts 271°
2026-05-07 04:40 29.49193 97.79083 38131 ft 397 kts 271°
2026-05-07 04:40 29.49517 97.72763 38134 ft 397 kts 271°
2026-05-07 04:41 29.49843 97.66442 38130 ft 396 kts 271°
2026-05-07 04:41 29.50166 97.60124 38132 ft 396 kts 272°
2026-05-07 04:42 29.50478 97.53877 38121 ft 392 kts 270°
2026-05-07 04:42 29.50778 97.47704 38146 ft 388 kts 270°
2026-05-07 04:43 29.51077 97.41494 38183 ft 390 kts 270°
2026-05-07 04:43 29.51380 97.35272 38207 ft 391 kts 270°
2026-05-07 04:44 29.51675 97.29047 38213 ft 390 kts 270°
2026-05-07 04:44 29.51976 97.22860 38224 ft 387 kts 269°
2026-05-07 04:45 29.52269 97.16708 38226 ft 385 kts 271°
2026-05-07 04:45 29.52554 97.10569 38249 ft 386 kts 269°
2026-05-07 04:46 29.52830 97.04407 38259 ft 387 kts 270°
2026-05-07 04:46 29.53114 96.98231 38273 ft 387 kts 269°
2026-05-07 04:47 29.53391 96.92063 38270 ft 384 kts 269°
2026-05-07 04:47 29.53665 96.85926 38294 ft 387 kts 269°
2026-05-07 04:48 29.53945 96.79743 38301 ft 389 kts 269°
2026-05-07 04:48 29.54213 96.73536 38307 ft 389 kts 269°
2026-05-07 04:49 29.54477 96.67336 38313 ft 389 kts 270°
2026-05-07 04:49 29.54746 96.61181 38326 ft 389 kts 269°
2026-05-07 04:50 29.55008 96.54979 38332 ft 389 kts 269°
2026-05-07 04:50 29.55275 96.48795 38300 ft 386 kts 269°
2026-05-07 04:51 29.55527 96.42652 38305 ft 383 kts 268°
2026-05-07 04:51 29.55775 96.36550 38294 ft 384 kts 268°
2026-05-07 04:52 29.56023 96.30402 38291 ft 385 kts 268°
2026-05-07 04:52 29.56274 96.24248 38295 ft 386 kts 268°
2026-05-07 04:53 29.56516 96.18097 38298 ft 386 kts 268°
2026-05-07 04:53 29.56751 96.11967 38287 ft 383 kts 268°
2026-05-07 04:54 29.56984 96.05896 38276 ft 382 kts 268°
2026-05-07 04:54 29.57227 95.99771 38275 ft 384 kts 268°
2026-05-07 04:55 29.57457 95.93630 38274 ft 385 kts 268°
2026-05-07 04:55 29.57686 95.87488 38272 ft 385 kts 268°
2026-05-07 04:56 29.57912 95.81345 38249 ft 385 kts 268°
2026-05-07 04:56 29.58133 95.75207 38262 ft 385 kts 268°
2026-05-07 04:57 29.58352 95.69051 38265 ft 386 kts 268°
2026-05-07 04:57 29.58574 95.62896 38251 ft 384 kts 268°
2026-05-07 04:58 29.58491 95.56772 38239 ft 381 kts 258°
2026-05-07 04:58 29.57675 95.50744 38240 ft 382 kts 258°
2026-05-07 04:59 29.56863 95.44699 38216 ft 383 kts 258°
2026-05-07 04:59 29.56047 95.38648 38245 ft 385 kts 259°
2026-05-07 05:00 29.55218 95.32562 38224 ft 383 kts 258°
2026-05-07 05:00 29.54406 95.26582 38197 ft 376 kts 258°
2026-05-07 05:01 29.53590 95.20605 38202 ft 379 kts 258°
2026-05-07 05:01 29.52763 95.14639 38205 ft 381 kts 258°
2026-05-07 05:02 29.51936 95.08606 38224 ft 383 kts 258°
2026-05-07 05:02 29.51106 95.02564 38236 ft 382 kts 258°
2026-05-07 05:03 29.50274 94.96525 38241 ft 383 kts 258°
2026-05-07 05:03 29.49437 94.90485 38250 ft 383 kts 258°
2026-05-07 05:04 29.48596 94.84443 38256 ft 383 kts 258°
2026-05-07 05:04 29.47748 94.78390 38241 ft 384 kts 258°
2026-05-07 05:05 29.46890 94.72325 38247 ft 385 kts 258°
2026-05-07 05:05 29.46037 94.66259 38248 ft 385 kts 258°
2026-05-07 05:06 29.45182 94.60187 38223 ft 384 kts 259°
2026-05-07 05:06 29.44328 94.54155 38237 ft 386 kts 258°
2026-05-07 05:07 29.43460 94.48063 38236 ft 386 kts 258°
2026-05-07 05:07 29.41691 94.42318 38225 ft 383 kts 243°
2026-05-07 05:08 29.39286 94.36833 38214 ft 386 kts 243°
2026-05-07 05:08 29.36889 94.31346 38221 ft 384 kts 244°
2026-05-07 05:09 29.34497 94.25860 38221 ft 383 kts 244°
2026-05-07 05:09 29.32112 94.20394 38216 ft 384 kts 243°
2026-05-07 05:10 29.29705 94.14891 38225 ft 386 kts 244°
2026-05-07 05:10 29.27293 94.09395 38226 ft 386 kts 244°
2026-05-07 05:11 29.24898 94.03941 38224 ft 385 kts 243°
2026-05-07 05:11 29.22485 93.98477 38218 ft 385 kts 243°
2026-05-07 05:12 29.20464 93.93885 38222 ft 385 kts 243°
2026-05-07 05:12 29.17667 93.87520 38223 ft 384 kts 243°
2026-05-07 05:13 29.15662 93.82980 38209 ft 383 kts 243°
2026-05-07 05:13 29.13260 93.77547 38200 ft 383 kts 243°
2026-05-07 05:14 29.10854 93.72119 38192 ft 382 kts 243°
2026-05-07 05:14 29.08441 93.66672 38199 ft 384 kts 243°
2026-05-07 05:15 29.06022 93.61222 38187 ft 383 kts 243°
2026-05-07 05:15 29.03616 93.55808 38178 ft 382 kts 242°
2026-05-07 05:16 29.01192 93.50373 38171 ft 384 kts 242°
2026-05-07 05:16 28.98766 93.44937 38174 ft 385 kts 243°
2026-05-07 05:17 28.96339 93.39480 38165 ft 385 kts 243°
2026-05-07 05:17 28.93910 93.34046 38158 ft 382 kts 243°
2026-05-07 05:18 28.91507 93.28686 38147 ft 381 kts 242°
2026-05-07 05:18 28.89084 93.23290 38148 ft 384 kts 243°
2026-05-07 05:19 28.86634 93.17845 38145 ft 386 kts 243°
2026-05-07 05:19 28.84186 93.12391 38139 ft 385 kts 243°
2026-05-07 05:20 28.81748 93.06960 38136 ft 381 kts 243°
2026-05-07 05:20 28.79325 93.01587 38129 ft 381 kts 242°
2026-05-07 05:21 28.75673 92.93510 38122 ft 383 kts 242°
2026-05-07 05:22 28.73229 92.88103 38111 ft 383 kts 243°
2026-05-07 05:22 28.70795 92.82731 38099 ft 380 kts 242°
2026-05-07 05:23 28.68353 92.77352 38117 ft 383 kts 242°
2026-05-07 05:23 28.65917 92.71995 38116 ft 383 kts 242°
2026-05-07 05:24 28.63469 92.66606 38113 ft 383 kts 242°
2026-05-07 05:24 28.61022 92.61224 38104 ft 382 kts 242°
2026-05-07 05:25 28.58570 92.55835 38093 ft 382 kts 242°
2026-05-07 05:25 28.56119 92.50462 38082 ft 382 kts 242°
2026-05-07 05:26 28.53660 92.45091 38092 ft 383 kts 242°
2026-05-07 05:26 28.51203 92.39720 38098 ft 383 kts 242°
2026-05-07 05:27 28.48749 92.34355 38100 ft 382 kts 242°
2026-05-07 05:27 28.46291 92.28999 38096 ft 383 kts 242°
2026-05-07 05:28 28.43821 92.23624 38107 ft 384 kts 242°
2026-05-07 05:28 28.41354 92.18254 38120 ft 384 kts 242°
2026-05-07 05:29 28.38900 92.12869 38131 ft 384 kts 242°
2026-05-07 05:29 28.36459 92.07488 38147 ft 384 kts 242°
2026-05-07 05:30 28.34010 92.02106 38148 ft 385 kts 242°
2026-05-07 05:30 28.31540 91.96697 38176 ft 386 kts 242°
2026-05-07 05:31 28.29057 91.91294 38188 ft 386 kts 242°
2026-05-07 05:31 28.26576 91.85899 38199 ft 386 kts 242°
2026-05-07 05:32 28.24088 91.80483 38218 ft 387 kts 242°
2026-05-07 05:32 28.21605 91.75066 38235 ft 387 kts 242°
2026-05-07 05:33 28.19131 91.69697 38223 ft 385 kts 241°
2026-05-07 05:33 28.16649 91.64313 38242 ft 386 kts 242°
2026-05-07 05:34 28.14158 91.58911 38255 ft 388 kts 242°
2026-05-07 05:34 28.11666 91.53513 38241 ft 385 kts 242°
2026-05-07 05:35 28.09187 91.48143 38224 ft 383 kts 242°
2026-05-07 05:35 28.06701 91.42788 38220 ft 384 kts 242°
2026-05-07 05:36 28.04215 91.37446 38223 ft 385 kts 242°
2026-05-07 05:36 28.01733 91.32104 38227 ft 386 kts 242°
2026-05-07 05:37 27.99232 91.26722 38229 ft 385 kts 242°
2026-05-07 05:37 27.96747 91.21386 38216 ft 383 kts 242°
2026-05-07 05:38 27.94240 91.16025 38210 ft 383 kts 242°
2026-05-07 05:38 27.91749 91.10690 38205 ft 383 kts 242°
2026-05-07 05:39 27.89275 91.05381 38219 ft 385 kts 242°
2026-05-07 05:39 27.88019 91.02693 38040 ft 386 kts 242°
2026-05-07 05:39 27.86767 91.00018 37773 ft 385 kts 242°
2026-05-07 05:39 27.85511 90.97339 37520 ft 386 kts 242°
2026-05-07 05:40 27.84248 90.94655 37271 ft 387 kts 243°
2026-05-07 05:40 27.82987 90.91973 37014 ft 387 kts 242°
2026-05-07 05:40 27.81725 90.89283 36762 ft 388 kts 242°
2026-05-07 05:40 27.80458 90.86579 36527 ft 389 kts 242°
2026-05-07 05:41 27.79192 90.83878 36286 ft 391 kts 242°
2026-05-07 05:41 27.77917 90.81165 36045 ft 391 kts 242°
2026-05-07 05:41 27.76636 90.78450 35807 ft 391 kts 242°
2026-05-07 05:41 27.75358 90.75741 35572 ft 392 kts 242°
2026-05-07 05:42 27.74075 90.73018 35347 ft 393 kts 242°
2026-05-07 05:42 27.72790 90.70292 35112 ft 395 kts 242°
2026-05-07 05:42 27.71497 90.67552 34883 ft 395 kts 242°
2026-05-07 05:42 27.70202 90.64813 34656 ft 395 kts 242°
2026-05-07 05:43 27.68906 90.62076 34423 ft 395 kts 242°
2026-05-07 05:43 27.67610 90.59342 34202 ft 396 kts 242°
2026-05-07 05:43 27.66311 90.56603 33860 ft 396 kts 242°
2026-05-07 05:43 27.65005 90.53847 32896 ft 399 kts 242°
2026-05-07 05:44 27.63690 90.51070 31945 ft 403 kts 242°
2026-05-07 05:44 27.62361 90.48262 30973 ft 408 kts 241°
2026-05-07 05:44 27.61017 90.45432 29980 ft 412 kts 241°
2026-05-07 05:44 27.59672 90.42602 29356 ft 405 kts 241°
2026-05-07 05:45 27.58354 90.39827 28749 ft 399 kts 241°
2026-05-07 05:45 27.57053 90.37088 28145 ft 393 kts 241°
2026-05-07 05:45 27.55774 90.34400 27556 ft 385 kts 241°
2026-05-07 05:45 27.54515 90.31754 26992 ft 381 kts 241°
2026-05-07 05:46 27.53268 90.29133 26411 ft 376 kts 241°
2026-05-07 05:46 27.52035 90.26546 25856 ft 373 kts 241°
2026-05-07 05:46 27.50812 90.23977 25299 ft 371 kts 241°
2026-05-07 05:46 27.49600 90.21433 24759 ft 368 kts 241°
2026-05-07 05:47 27.48406 90.18927 24217 ft 367 kts 241°
2026-05-07 05:47 27.47197 90.16395 23688 ft 367 kts 241°
2026-05-07 05:47 27.45989 90.13867 23105 ft 366 kts 241°
2026-05-07 05:47 27.44784 90.11349 22617 ft 363 kts 241°
2026-05-07 05:48 27.43590 90.08858 22137 ft 360 kts 241°
2026-05-07 05:48 27.42403 90.06386 21627 ft 357 kts 241°
2026-05-07 05:48 27.41414 90.03840 21145 ft 356 kts 250°
2026-05-07 05:48 27.40641 90.01198 20641 ft 354 kts 250°
2026-05-07 05:49 27.39869 89.98574 20155 ft 352 kts 250°
2026-05-07 05:49 27.39105 89.95991 19924 ft 343 kts 250°
2026-05-07 05:49 27.38363 89.93489 19812 ft 331 kts 250°
2026-05-07 05:49 27.37648 89.91066 19690 ft 321 kts 251°
2026-05-07 05:50 27.37231 89.88648 19567 ft 312 kts 263°
2026-05-07 05:50 27.37266 89.86238 19438 ft 305 kts 272°
2026-05-07 05:50 27.37426 89.83888 19229 ft 299 kts 272°
2026-05-07 05:50 27.37573 89.81556 18893 ft 298 kts 272°
2026-05-07 05:51 27.37714 89.79227 18598 ft 298 kts 271°
2026-05-07 05:51 27.37853 89.76905 18310 ft 297 kts 272°
2026-05-07 05:51 27.37993 89.74596 17931 ft 297 kts 272°
2026-05-07 05:51 27.38135 89.72282 17599 ft 295 kts 272°
2026-05-07 05:52 27.38274 89.70003 17259 ft 295 kts 272°
2026-05-07 05:52 27.38369 89.68455 16993 ft 295 kts 272°
2026-05-07 05:52 27.38511 89.66157 16702 ft 293 kts 272°
2026-05-07 05:52 27.38653 89.63866 16352 ft 293 kts 272°
2026-05-07 05:53 27.38792 89.61586 16135 ft 290 kts 272°
2026-05-07 05:53 27.38927 89.59357 16021 ft 282 kts 272°
2026-05-07 05:53 27.39060 89.57183 15910 ft 275 kts 272°
2026-05-07 05:53 27.39188 89.55072 15758 ft 268 kts 272°
2026-05-07 05:54 27.39314 89.52985 15547 ft 266 kts 272°
2026-05-07 05:54 27.39438 89.50918 15431 ft 263 kts 272°
2026-05-07 05:54 27.39558 89.48910 15398 ft 250 kts 272°
2026-05-07 05:54 27.39672 89.47014 15405 ft 238 kts 271°
2026-05-07 05:55 27.39784 89.45165 15410 ft 236 kts 271°
2026-05-07 05:55 27.39895 89.43331 15405 ft 235 kts 272°
2026-05-07 05:55 27.39995 89.41497 15408 ft 235 kts 268°
2026-05-07 05:55 27.39875 89.39669 15410 ft 234 kts 258°
2026-05-07 05:56 27.39488 89.37909 15406 ft 231 kts 249°
2026-05-07 05:56 27.38860 89.36244 15410 ft 230 kts 240°
2026-05-07 05:56 27.38008 89.34725 15409 ft 230 kts 232°
2026-05-07 05:56 27.36951 89.33385 15422 ft 230 kts 223°
2026-05-07 05:57 27.35734 89.32279 15441 ft 217 kts 214°
2026-05-07 05:57 27.34463 89.31458 15252 ft 212 kts 205°
2026-05-07 05:57 27.33108 89.30872 15070 ft 207 kts 197°
2026-05-07 05:57 27.31728 89.30521 14898 ft 200 kts 189°
2026-05-07 05:58 27.30362 89.30449 14740 ft 193 kts 177°
2026-05-07 05:58 27.29057 89.30680 14599 ft 188 kts 166°
2026-05-07 05:58 27.27841 89.31187 14447 ft 184 kts 155°
2026-05-07 05:58 27.26762 89.31928 14310 ft 181 kts 144°
2026-05-07 05:59 27.25837 89.32875 14170 ft 178 kts 133°
2026-05-07 05:59 27.25089 89.33998 14026 ft 184 kts 122°
2026-05-07 05:59 27.24525 89.35305 13885 ft 192 kts 111°
2026-05-07 05:59 27.24119 89.36766 13712 ft 197 kts 108°
2026-05-07 06:00 27.23721 89.38245 13555 ft 198 kts 108°
2026-05-07 06:00 27.23319 89.39732 13397 ft 198 kts 108°
2026-05-07 06:00 27.22919 89.41209 13248 ft 198 kts 108°
2026-05-07 06:00 27.22517 89.42688 13093 ft 197 kts 108°
2026-05-07 06:01 27.22195 89.44180 12918 ft 197 kts 99°
2026-05-07 06:01 27.22120 89.45716 12748 ft 197 kts 89°
2026-05-07 06:01 27.22298 89.47242 12579 ft 197 kts 78°
2026-05-07 06:01 27.22725 89.48707 12343 ft 198 kts 67°
2026-05-07 06:02 27.23391 89.50063 12105 ft 198 kts 57°
2026-05-07 06:02 27.24240 89.51232 12026 ft 187 kts 46°
2026-05-07 06:02 27.25188 89.52163 11963 ft 177 kts 37°
2026-05-07 06:02 27.26229 89.52889 11882 ft 175 kts 28°
2026-05-07 06:03 27.27305 89.53526 11824 ft 175 kts 28°
2026-05-07 06:03 27.28374 89.54128 11740 ft 175 kts 21°
2026-05-07 06:03 27.29532 89.54377 11687 ft 163 kts
2026-05-07 06:03 27.30633 89.54202 11446 ft 164 kts 342°
2026-05-07 06:04 27.31649 89.53621 11240 ft 162 kts 323°
2026-05-07 06:04 27.32399 89.52749 11004 ft 152 kts 303°
2026-05-07 06:04 27.32868 89.51607 10728 ft 176 kts 284°
2026-05-07 06:04 27.33025 89.50239 10514 ft 174 kts 271°
2026-05-07 06:05 27.33237 89.48854 10145 ft 183 kts 286°
2026-05-07 06:05 27.33884 89.47666 9808 ft 176 kts 311°
2026-05-07 06:05 27.34860 89.46885 9412 ft 169 kts 332°
2026-05-07 06:05 27.35879 89.46332 9078 ft 157 kts 330°
2026-05-07 06:06 27.36780 89.45680 8717 ft 153 kts 323°
2026-05-07 06:06 27.37553 89.44862 8291 ft 153 kts 310°
2026-05-07 06:06 27.38247 89.43913 7742 ft 157 kts 313°
2026-05-07 06:06 27.39118 89.43238 7421 ft 147 kts 330°
2026-05-07 06:07 27.39981 89.42691 7322 ft 134 kts 330°
2026-05-07 06:07 27.40603 89.42298 7343 ft 61 kts 330°
2026-05-07 06:07 27.40754 89.42196 7352 ft 9 kts 314°
2026-05-07 06:07 27.40774 89.42193 7354 ft 2 kts 106°
2026-05-07 06:08 27.40737 89.42213 7351 ft 11 kts 150°
2026-05-07 06:08 27.40671 89.42176 7348 ft 11 kts 239°
2026-05-07 06:08 27.40643 89.42124 7348 ft 7 kts 238°
2026-05-07 06:08 27.40635 89.42108 7349 ft 0 kts 238°